Photometre #253[Standard_N] Modena AOT

File : 20210610_253.hum

10/06/2021,04:29:47,TEMP=18.3,BA=5.00,STAT.A
10/06/2021,04:29:58,TEMP=18.3,BA=5.00,STAT.s
10/06/2021,04:33:42,TEMP=18.5,BA=5.04,STAT.A
10/06/2021,04:38:15,TEMP=18.7,BA=5.04,STAT.A
10/06/2021,04:43:37,TEMP=18.9,BA=5.04,STAT.A
10/06/2021,04:50:01,TEMP=19.3,BA=5.04,STAT.A
10/06/2021,04:57:49,TEMP=19.6,BA=5.12,STAT.A
10/06/2021,05:07:33,TEMP=20.0,BA=5.12,STAT.B
10/06/2021,05:14:52,TEMP=20.0,BA=5.12,STAT.A
10/06/2021,05:17:16,TEMP=20.0,BA=5.12,STAT.A
10/06/2021,05:22:59,TEMP=19.9,BA=5.08,STAT.A
10/06/2021,05:29:25,TEMP=19.7,BA=5.08,STAT.A
10/06/2021,05:36:42,TEMP=19.7,BA=5.08,STAT.C
10/06/2021,05:47:57,TEMP=19.9,BA=5.12,STAT.A
10/06/2021,05:54:48,TEMP=20.3,BA=5.16,STAT.A
10/06/2021,06:06:12,TEMP=21.2,BA=5.16,STAT.A
10/06/2021,06:19:54,TEMP=21.9,BA=5.20,STAT.A
10/06/2021,06:36:36,TEMP=22.9,BA=5.20,STAT.B
10/06/2021,07:10:31,TEMP=24.4,BA=5.20,STAT.B
10/06/2021,07:17:51,TEMP=24.8,BA=5.20,STAT.E
10/06/2021,07:30:51,TEMP=25.3,BA=5.20,STAT.D
10/06/2021,07:45:51,TEMP=26.6,BA=5.24,STAT.D
10/06/2021,08:00:50,TEMP=27.1,BA=5.28,STAT.D
10/06/2021,08:01:54,TEMP=27.1,BA=5.28,STAT.s
10/06/2021,08:15:50,TEMP=27.6,BA=5.28,STAT.E
10/06/2021,08:17:05,TEMP=27.6,BA=5.28,STAT.s
10/06/2021,08:30:50,TEMP=27.1,BA=5.28,STAT.D
10/06/2021,08:31:53,TEMP=27.1,BA=5.28,STAT.s
10/06/2021,08:45:50,TEMP=26.6,BA=5.32,STAT.D
10/06/2021,09:00:51,TEMP=27.4,BA=5.32,STAT.D
10/06/2021,09:15:51,TEMP=28.1,BA=5.32,STAT.F
10/06/2021,09:30:51,TEMP=28.1,BA=5.24,STAT.D
10/06/2021,09:45:51,TEMP=28.1,BA=5.32,STAT.D
10/06/2021,10:00:51,TEMP=28.3,BA=5.36,STAT.D